Regional Weather Roundup
Issued by NWS

Home | Current Version | Previous Version | Text Only | Print | Product List | Glossary On
Versions: 1 2 3 4 5 6 7 8 9 10 11 12 13 14 15 16 17 18 19 20 21 22 23 24 25 26 27 28 29 30 31 32 33 34 35 36 37 38 39 40 41 42 43 44 45 46 47 48 49 50
000
ASCA44 KEWX 081420
RWRMX

LATIN AMERICA AND CARIBBEAN REGIONAL WEATHER ROUNDUP
NATIONAL WEATHER SERVICE AUSTIN/SAN ANTONIO TX
800 AM CST MON FEB 08 2016

NOTE: "FAIR" INDICATED FEW OR NO CLOUDS BELOW 12,000 FEET WITH NO
SIGNIFICANT WEATHER AND/OR OBSTRUCTIONS TO VISIBILITY.

BAJA CALIFORNIA

CITY           SKY/WX    TMP DP  RH WIND       PRES   REMARKS
LORETO         CLOUDY    72  61  68 CALM      29.99
TIJUANA        CLEAR     70  16  12 E9        30.11R

NORTHWESTERN MEXICO

CITY           SKY/WX    TMP DP  RH WIND       PRES   REMARKS
CULIACAN       CLOUDY    63  57  82 CALM      29.97
DURANGO        CLOUDY    48  14  25 NE7       30.35R WCI  45
GUAYMAS        CLOUDY    64  41  42 CALM      29.95
HERMOSILLO     CLOUDY    59  34  38 E6        30.06
LOS MOCHIS     CLOUDY    64  55  72 SW9       29.98
OBREGON        MOCLDY    55  48  76 SW8       29.96

NORTHEASTERN MEXICO

CITY           SKY/WX    TMP DP  RH WIND       PRES   REMARKS
MONCLOVA       MOCLDY    52  21  30 NE7       30.38
MONTERREY      MOCLDY    57  30  35 W12       30.26R
PIEDRAS NEGRAS PTCLDY    46  30  53 NW7       30.40  WCI  43
REYNOSA        MOCLDY    50  45  81 N3        30.25
SALTILLO         N/A    N/A N/A N/A MISG        N/A
TORREON        MOCLDY    52  23  32 CALM      30.30R
CD. VICTORIA   CLOUDY    55  45  67 N3        30.24R

WESTERN MEXICO

CITY           SKY/WX    TMP DP  RH WIND       PRES   REMARKS
AGUASCALIENTES CLOUDY    46  14  27 NE7       30.35  WCI  43
COLIMA         PTCLDY    70  30  23 N17       30.03
DEL BAJIO      MOCLDY    36  21  55 N5        30.38R WCI  32
GUADALAJARA    MOCLDY    37  28  70 CALM      30.28R
MAZATLAN       CLOUDY    64  61  88 CALM      29.93S
P. VALLARTA    CLOUDY    63  55  77 N2        29.92R
URUAPAN        MOCLDY    50  41  71 CALM      30.20R
ZACATECAS      MOCLDY    45  19  36 S6        30.38R WCI  41

CENTRAL MEXICO

CITY           SKY/WX    TMP DP  RH WIND       PRES   REMARKS
CUERNAVACA     PTSUNNY   55  28  35 CALM      30.20R
MEXICO CITY    PTSUNNY   45  27  49 E6        30.42R WCI  41
MORELIA        MOCLDY    34  25  69 CALM      30.33R
POZA RICA      PTSUNNY   63  63 100 W5        30.24
PUEBLA         PTSUNNY   39  21  48 N9        30.37  WCI  33
QUERETARO      MOCLDY    37  27  65 E3        30.41R
S. LUIS POTOSI MOCLDY    37  21  52 CALM      30.35R
TAMPICO        PTSUNNY   55  54  94 CALM      30.22R
TOLUCA         PTSUNNY   32  28  86 CALM      30.44R

SOUTHERN MEXICO

CITY           SKY/WX    TMP DP  RH WIND       PRES   REMARKS
ACAPULCO       MOSUNNY   73  66  78 N5        29.93R
B. DE HUATULCO MOSUNNY   72  57  60 CALM      30.00R
OAXACA         PTSUNNY   41  34  75 N5        30.30R WCI  38
P. ESCONDIDO   MOSUNNY   72  50  46 E10       30.03
VERACRUZ       PTSUNNY   59  55  88 NW3       30.21R
ZIHUATANEJO    MOCLDY    70  64  83 CALM      29.92

YUCATAN PENINSULA

CITY           SKY/WX    TMP DP  RH WIND       PRES   REMARKS
CAMPECHE       PTSUNNY   54  52  94 CALM      30.17
CANCUN         PTSUNNY   57  55  94 NW6       30.17R
CHETUMAL       MOSUNNY   59  55  88 N6        30.18
CD. DEL CARMEN PTSUNNY   64  59  82 S5        30.17
COZUMEL        PTSUNNY   64  59  82 N12       30.16R
MERIDA         CLOUDY    54  50  87 CALM      30.19R
MINATITLAN     MOSUNNY   61  59  94 CALM      30.14
TAPACHULA      MOSUNNY   75  68  78 CALM      29.96R
TUX. GUTIERREZ PTSUNNY   54  46  76 CALM      30.19
VILLAHERMOSA   MOSUNNY   59  57  94 CALM      30.20

CENTRAL AMERICA

CITY           SKY/WX    TMP DP  RH WIND       PRES   REMARKS
BELIZE CITY    MOSUNNY   63  57  82 NW7       30.18R
MANAGUA        MOSUNNY   75  68  78 SE16      29.94R

CARIBBEAN

CITY           SKY/WX    TMP DP  RH WIND       PRES   REMARKS
ARUBA          MOSUNNY   84  72  65 E21       29.94S
CURACAO        MOSUNNY   84  72  65 SE23      30.00R
KINGSTON       PTSUNNY   81  72  74 N5        30.00R
NASSAU         PTSUNNY  N/A N/A N/A W5        30.10R
SAN JUAN       MOSUNNY   79  72  78 N7        30.10R
SANTO DOMINGO  MOSUNNY   81  77  89 E8        30.03S
ST. CROIX      MOSUNNY   82  72  69 SE8       30.10R
ST. KITTS      MOSUNNY   82  73  74 E10       30.09R
ST. MAARTEN    MOSUNNY   81  73  78 SE15      30.09R
ST. THOMAS     SUNNY     81  73  78 SE10      30.08R

$$




USA.gov is the U.S. government's official web portal to all federal, state and local government web resources and services.